Regional Weather Roundup
Issued by NWS Wakefield, VA

Home | Current Version | Previous Version | Graphics & Text | Print | Product List | Glossary On
Versions: 1 2 3 4 5 6 7 8 9 10 11 12 13 14 15 16 17 18 19 20 21 22 23 24 25 26 27
000
ASUS41 KAKQ 230816
RWRAKQ

REGIONAL WEATHER ROUNDUP
NATIONAL WEATHER SERVICE WAKEFIELD VA
400 AM EDT WED AUG 23 2017

Note: "fair" indicates few or no clouds below 12,000 feet with no
significant weather and/or obstructions to visibility. * = Denotes
station may not report precipitation (e.g., rain,snow,etc.),
thunder or fog.

VAZ042-051-052>054-056-230900-
NORTHERN VIRGINIA

CITY           SKY/WX    TMP DP  RH WIND       PRES   REMARKS
WASH NATIONAL  MOCLDY    79  69  71 W6        29.81S
DULLES         CLOUDY    76  69  79 NW10      29.82S
FORT BELVOIR   CLOUDY    73  69  87 CALM      29.81F
QUANTICO       PTCLDY    78  75  90 NW6       29.81F
FREDERICKSBRG* CLOUDY    76  74  93 CALM      29.81S
STAFFORD*      CLOUDY    72  72 100 CALM      29.86S
WARRENTON      MOCLDY    73  67  83 CALM      29.82S
CULPEPER*      MOCLDY    73  71  94 CALM      29.83F
MANASSAS*      MOCLDY    74  71  91 CALM      29.83R
LEESBURG*      CLOUDY    73  70  88 W6        29.84S
WINCHESTER     CLOUDY    70  66  88 SW3       29.85S
FRONT ROYAL*   CLOUDY    72  70  94 CALM      29.84F
LURAY*         CLOUDY    72  70  94 CALM      29.85F
$$

VAZ048-049-060>072-079>083-230900-
CENTRAL AND SOUTH CENTRAL VIRGINIA

CITY           SKY/WX    TMP DP  RH WIND       PRES   REMARKS
RICHMOND       PTCLDY    77  73  87 SW10      29.83F
CHESTERFIELD*  FAIR      77  72  84 SW7       29.84F
PETERSBURG*    CLEAR     75  71  86 S5        29.86S
HANOVER        CLOUDY    80  69  69 SW12      29.83F
TAPPAHANNOCK*  CLOUDY    79  75  87 S6        29.83S
QUINTON*       FAIR     N/A N/A N/A CALM      29.83S
CHARLOTTSVILLE MOCLDY    79  67  66 CALM      29.83F
GORDONSVILLE*  CLOUDY    73  71  91 CALM      29.82F
ORANGE*        CLOUDY    72  68  88 CALM      29.82F
LOUISA*        PTCLDY    75  70  83 CALM      29.83F
BUMPASS*       FAIR      75  73  95 SW5       29.82F
FARMVILLE*     CLEAR     75  71  87 SW5       29.84F
CREWE*         FAIR      75  71  87 CALM      29.85F
FORT PICKETT*  FAIR     N/A N/A N/A SW7       29.86F
CHASE CITY*    FAIR      75  74  97 CALM      29.87F
CLARKSVILLE*   FAIR      73  73 100 SW6       29.87F
SOUTH HILL*    CLEAR     73  73  99 S7        29.92F
LAWRENCEVILLE* FAIR      75  72  89 S6        29.87F
EMPORIA*       CLEAR     73  72  94 CALM      29.88F
$$

VAZ088>098-230900-
SOUTHEAST VIRGINIA

CITY           SKY/WX    TMP DP  RH WIND       PRES   REMARKS
NORFOLK        CLEAR     78  75  90 SW10      29.86S
VIRGINIA BEACH CLEAR     77  73  87 SW10      29.85F
NORFOLK NAVAL  PTCLDY    79  74  84 SW10      29.87F
WEST POINT*    CLEAR     78  73  85 S6        29.84F
SALUDA*        FAIR      78  76  95 SW9       29.82S
NEWPORT NEWS   CLEAR     78  74  87 SW14      29.85S
LANGLEY AFB    CLEAR     79  75  87 SW14      29.85S
FORT EUSTIS    CLEAR     79  74  86 SW5       29.82F
WILLIAMSBURG*  CLEAR     81  73  78 CALM      29.85F
HR EXEC AP*    FAIR      75  72  88 SW7       29.85S
FRANKLIN*      CLEAR     76  73  88 SW8       29.87F
US460-WAKEFLD  CLEAR     77  75  93 SW7       29.85F
$$

VAZ020-022-025-037-045-230900-
WEST CENTRAL AND SOUTHWEST VIRGINIA

CITY           SKY/WX    TMP DP  RH WIND       PRES   REMARKS
STAUNTON*      CLOUDY    75  64  67 CALM      29.89F
WAYNESBORO*    MOSUNNY   74  67  76 S5        29.89F
HOT SPRINGS VA CLOUDY    64  63  94 W12G18    30.02S
LYNCHBURG      CLEAR     73  70  90 CALM      29.87F
DANVILLE       PTCLDY    71  71 100 SW3       29.88F
SOUTH BOSTON*  FAIR      73  72  95 S3        29.87F
MARTINSVILLE   CLOUDY    69  68  97 CALM      29.92F FOG
ROANOKE        PTCLDY    74  66  76 W6        29.91F
BLACKSBURG     HVY RAIN  71  67  85 W5        30.00R
DUBLIN*        LGT RAIN  71  68  92 W3        29.98S
MARION*        CLOUDY    71  54  53 W8        30.02S
HILLSVILLE*    MOCLDY    69  62  78 CALM      29.99S
RICHLANDS*     CLOUDY    68  63  84 W6        30.02F
WISE*            N/A    N/A N/A N/A CALM      30.02F
ABINGDON*      CLOUDY    73  67  81 CALM      29.98F
$$

MDZ021>025-VAZ099-100-230900-
SOUTHERN MARYLAND AND THE DELMARVA PENINSULA

CITY           SKY/WX    TMP DP  RH WIND       PRES   REMARKS
PATUXENT RIVER CLEAR     78  75  90 W5        29.80S
BAY BRIDGE APT PTCLDY    79  72  78 NW5       29.80S
LEONARDTOWN    CLEAR     77  72  83 W3        29.83S
DOVER          PTCLDY    77  77 100 N3        29.78S
GEORGETOWN     PTCLDY    80  75  84 SW3       29.81R
EASTON         CLEAR     80  74  81 W3        29.84F
CAMBRIDGE      PTCLDY    79  75  89 CALM      29.80F
SALISBURY      CLEAR     78  77  96 SW7       29.80F
OCEAN CITY     CLEAR     79  76  90 SW13      29.81F
WALLOPS ISLAND CLEAR     77  76  96 SW8       29.82F
ACCOMACK*      CLEAR     80  76  87 SW10G18   29.83S
$$

NCZ012>017-030>032-230900-
NORTH CENTRAL AND EASTERN NORTH CAROLINA

CITY           SKY/WX    TMP DP  RH WIND       PRES   REMARKS
ROANOKE RAPIDS FAIR      73  73 100 SW6       29.88F
RALEIGH        PTCLDY    77  73  87 SW8       29.90F
ELIZABETH CITY CLEAR     78  77  96 SW10      29.88F
AHOSKIE*         N/A     75  73  96 S3        29.89F
EDENTON*       PTCLDY    80  75  86 SW9       29.90F
CURRITUCK*     CLEAR     78  74  87 SW6       29.89S
KILL DEVIL HLS CLEAR     79  73  81 SW7G16    29.89F
MANTEO         CLEAR     79  74  85 W13G18    29.91F
CAPE HATTERAS  CLEAR     81  78  91 SW8       29.92F
TARBORO*       NOT AVBL
GOLDSBORO      CLEAR     77  72  86 W5        29.91F
WASHINGTON     CLEAR     76  74  92 S6        29.90F
GREENVILLE     CLEAR     77  73  88 SW8       29.92F
NEW BERN       CLEAR     76  75  97 S5        29.93F
WILMINGTON     CLEAR     79  75  87 SW7       29.92F
$$

VAZ048-230900-
ELSEWHERE

CITY           SKY/WX    TMP DP  RH WIND       PRES   REMARKS
HARRISBURG PA  MOCLDY    75  71  87 NW7       29.79S
BALTIMORE      MOCLDY    76  70  82 W6        29.80S
ANNAPOLIS      MOCLDY    80  73  79 W3        29.79S
ANDREWS AFB    PTCLDY    76  67  74 W5        29.81S
PHILADELPHIA   CLOUDY    76  72  87 W6        29.78F
HENDERSON NC   CLEAR     73  69  88 SW8       29.89F
GREENSBORO     CLEAR     74  73  97 SW9       29.90F
ROCKY MOUNT    CLEAR     75  74  96 S6        29.89F
$$

VAZ100-230900-
MARINE

STATION/POSITION TIME  TEMP    WIND        PRES    WAVE   SWELL
                       AIR SEA DIR/SP/G            HT/PER HT/PER
                 (UTC) (F)     (DEG/KT/KT) (MB)    (FT/S) (FT/S)
BRANDYWINE LGT   0742   80     290/ 11/ 12 1009.2F
CAPE MAY NJ      0742   80 78  300/  7/  9 1008.5R
LEWES DE         0742   79 77  280/  7/  9 1008.8R
15NM E FENWICK I 0750   79 78  200/ 19/ 21 1009.1F   4/ 6   2/ 9
OCEAN-CITY-INLET 0742   80 76  240/ 14/ 17 1009.4F
WACHAPREAGUE VA  0742   79 84  240/  6/  9 1010.0F
THOMAS POINT MD  0800   80 81  280/  6/  7   N/A
GOOSES REEF MD   0800   81 81  260/  8/  8 1009.8    1/ 3
COVE POINT MD    0742   80     300/  4/  8 1009.8F
SOLOMONS ISLAND  0742   80 82  260/  3/  4   N/A
BISHOPS HEAD MD  0742   82 82  220/ 16/ 18 1009.2F
PINEY POINT MD   0742          250/  7/  9   N/A
POTOMAC MD       0800   81 83  240/ 14/ 17 1008.2    2/ 3
CAMBRIDGE MD     0742   79 83              1010.1F
LEWISETTA VA     0742   80 82  250/  9/ 13 1009.0F
RAPPAHANNOCK LGT 0742          220/ 19/ 21 1010.5F
STINGRAY PT      0800   80 82  260/ 16/ 19 1010.0    2/ 3
YORK RVR RNG VA  0742   80     240/ 19/ 23 1010.6F
YORKTOWN VA      0742   79 83  220/ 12/ 16 1010.0F
JAMESTOWN VA     0800      85  230/ 14/ 17   N/A     1
DOMINION TERM VA 0742   80     230/ 15/ 19 1010.9F
KIPTOPEKE VA     0742      81  230/ 18/ 22   N/A
CHES BAY BRIDGE  0742   80 81  240/ 20/ 24 1010.5F
CAPE HENRY VA    0742   79     210/ 11/ 18   N/A
WILLOUBY STN VA  0742   79     230/ 14/ 18 1010.8F
S CRANEY ISL VA  0742   79     220/ 12/ 15 1010.8F
CAPE HENRY BUOY  0730      78                N/A     3/10   2/11
1ST LANDING BUOY 0800   80 79              1010.6    1/ 3
64NM E OF VA BCH 0750   80 79  220/ 16/ 17 1011.9F   5/10   3/10
DUCK PIER NC     0742   80 68  220/ 16/ 21 1011.6F
44100 DUCK FRF   0705      80                N/A     3/10   2/11
44056 DUCK FRF   0800      73                N/A     3/10   2/11
OREGON INLET NC  0742   81 85  220/ 15/ 18 1012.6F
HATTERAS NC      0742   80 84  240/  7/ 11 1013.2F
DIAMOND SHLS NC  0750   83 85  250/ 16/ 19 1013.0F   4/ 8   3/ 8
CAPE LOOKOUT NC  0800   82     230/ 11/ 15 1013.0F
$$




USA.gov is the U.S. government's official web portal to all federal, state and local government web resources and services.